FW6829 Weather Reports


Display with metric or nautical units.
time (UTC)temp
F
wind
direction
speed
MPH
gust
MPH
rain 1hr
in
rain 24hr
in
rain mn
in
humidity
%
barometer
mb
20210417074942 44 63 2.0 11.0 0.00 0.00 0.00 51 483.2
20210417074426 44 121 1.0 11.0 0.00 0.00 0.00 51 483.9
20210417073928 44 90 1.0 11.0 0.00 0.00 0.00 51 481.8
20210417073424 44 108 3.0 11.0 0.00 0.00 0.00 52 543.0
20210417072922 43 166 3.0 11.0 0.00 0.00 0.00 52 597.7
20210417072534 43 159 1.0 11.0 0.00 0.00 0.00 54 599.7
20210417072044 42 146 3.0 11.0 0.00 0.00 0.00 55 566.0
20210417071425 42 86 1.0 11.0 0.00 0.00 0.00 56 494.8
20210417070921 41 22 3.0 11.0 0.00 0.00 0.00 57 611.7
20210417070422 41 37 1.0 11.0 0.00 0.00 0.00 57 984.7
20210417065947 41 359 2.0 11.0 0.00 0.00 0.00 58 1212.4
20210417065827 40 357 1.0 11.0 0.00 0.00 0.00 60 1195.6
20210417065033 40 351 0.0 11.0 0.00 0.00 0.00 61 1170.3
20210417064433 39 338 0.0 11.0 0.00 0.00 0.00 63 1170.6
20210417063919 38 340 1.0 11.0 0.00 0.00 0.00 65 1167.2
20210417063440 37 339 0.0 11.0 0.00 0.00 0.00 68 1159.8
20210417063041 36 341 0.0 11.0 0.00 0.00 0.00 71 1144.0
20210417062757 34 334 0.0 11.0 0.00 0.00 0.00 74 1119.9
20210417062033 33 317 0.0 11.0 0.00 0.00 0.00 76 1103.4
20210417061417 32 317 0.0 11.0 0.00 0.00 0.00 76 1103.7
20210417060929 32 317 0.0 11.0 0.00 0.00 0.00 77 1103.6
20210417060419 32 317 0.0 11.0 0.00 0.00 0.00 78 1104.0
20210417060133 31 317 0.0 11.0 0.00 0.00 0.00 78 1103.9
20210417055750 31 317 0.0 11.0 0.00 0.00 0.00 79 1105.1
20210417054915 31 317 0.0 11.0 0.00 0.00 0.00 80 1104.9
20210417054420 30 317 1.0 11.0 0.00 0.00 0.00 81 1103.9
20210417053926 29 317 0.0 11.0 0.00 0.00 0.00 82 1102.8
20210417053418 28 317 0.0 11.0 0.00 0.00 0.00 83 1101.8
20210417053151 28 317 0.0 11.0 0.00 0.00 0.00 83 1100.2
20210417052855 28 317 0.0 11.0 0.00 0.00 0.00 83 1097.7
20210417052141 28 317 0.0 11.0 0.00 0.00 0.00 83 1092.9
20210417051425 28 316 1.0 11.0 0.00 0.00 0.00 82 1080.4
20210417050914 27 296 1.0 11.0 0.00 0.00 0.00 85 1061.3
20210417050417 27 307 1.0 11.0 0.00 0.00 0.00 85 1077.0
20210417045956 27 307 1.0 11.0 0.00 0.00 0.00 85 1078.0
20210417045822 27 307 0.0 11.0 0.00 0.00 0.00 87 1078.8
20210417045146 26 307 1.0 11.0 0.00 0.00 0.00 88 1078.1
20210417044416 26 307 0.0 11.0 0.00 0.00 0.00 89 1077.6
20210417043912 25 307 0.0 11.0 0.00 0.00 0.00 89 1076.1
20210417043415 25 307 0.0 11.0 0.00 0.00 0.00 89 1075.2
20210417042912 24 307 1.0 11.0 0.00 0.00 0.00 91 1074.6
20210417042727 24 307 1.0 11.0 0.00 0.00 0.00 91 1074.3
20210417042034 24 307 0.0 11.0 0.00 0.00 0.00 90 1074.6
20210417041416 24 307 0.0 11.0 0.00 0.00 0.00 90 1074.0
20210417040918 24 307 0.0 11.0 0.00 0.00 0.00 89 1073.6
20210417040422 24 307 0.0 11.0 0.00 0.00 0.00 89 1074.1
20210417035921 24 307 0.0 11.0 0.00 0.00 0.00 88 1074.5
20210417035531 25 307 0.0 11.0 0.00 0.00 0.00 89 1074.6
20210417034936 24 307 0.0 11.0 0.00 0.00 0.00 90 1074.5
20210417034415 24 307 0.0 11.0 0.00 0.00 0.00 89 1073.8
20210417033911 24 307 0.0 11.0 0.00 0.00 0.00 88 1074.0
20210417033422 25 307 0.0 11.0 0.00 0.00 0.00 88 1074.1
20210417032910 25 307 0.0 11.0 0.00 0.00 0.00 87 1074.2
20210417032528 26 307 1.0 11.0 0.00 0.00 0.00 86 1074.6
20210417031928 26 307 0.0 11.0 0.00 0.00 0.00 86 1075.3
20210417031415 26 307 0.0 11.0 0.00 0.00 0.00 87 1075.7
20210417030917 26 307 0.0 11.0 0.00 0.00 0.00 87 1075.6
20210417030418 25 307 0.0 11.0 0.00 0.00 0.00 89 1075.2
20210417025910 25 307 1.0 11.0 0.00 0.00 0.00 89 1074.9
20210417025718 25 307 0.0 11.0 0.00 0.00 0.00 89 1076.0
20210417025049 25 307 1.0 11.0 0.00 0.00 0.00 89 1077.5
20210417024416 25 309 1.0 11.0 0.00 0.00 0.00 88 1079.6
20210417023908 25 309 1.0 11.0 0.00 0.00 0.00 88 1079.7
20210417023416 25 309 1.0 11.0 0.00 0.00 0.00 89 1079.9
20210417022910 25 309 0.0 11.0 0.00 0.00 0.00 88 1080.6
20210417022715 25 310 1.0 11.0 0.00 0.00 0.00 89 1082.4
20210417022044 25 310 1.0 11.0 0.00 0.00 0.00 88 1082.4
20210417021417 25 310 0.0 11.0 0.00 0.00 0.00 88 1082.7
20210417020904 26 310 2.0 11.0 0.00 0.00 0.00 87 1081.9
20210417020410 26 310 0.0 11.0 0.00 0.00 0.00 87 1079.7
20210417015922 26 309 2.0 11.0 0.00 0.00 0.00 88 1075.1
20210417015729 25 308 3.0 11.0 0.00 0.00 0.00 90 1069.8
20210417014950 24 314 2.0 11.0 0.00 0.00 0.00 88 1071.4
20210417014404 25 313 1.0 11.0 0.00 0.00 0.00 85 1057.6
20210417013904 26 313 0.0 11.0 0.00 0.00 0.00 85 1030.7
20210417013408 26 312 2.0 11.0 0.00 0.00 0.00 86 975.4
20210417013043 26 258 0.0 11.0 0.00 0.00 0.00 87 894.7
20210417012852 26 244 1.0 11.0 0.00 0.00 0.00 86 870.1
20210417012050 26 244 0.0 11.0 0.00 0.00 0.00 86 857.7
20210417011420 26 244 1.0 11.0 0.00 0.00 0.00 87 833.7
20210417010904 26 244 0.0 11.0 0.00 0.00 0.00 87 787.0
20210417010416 26 236 1.0 11.0 0.00 0.00 0.00 87 694.2
20210417010120 26 144 0.0 11.0 0.00 0.00 0.00 87 581.1
20210417005842 26 144 1.0 11.0 0.00 0.00 0.00 86 580.6
20210417005115 26 144 0.0 11.0 0.00 0.00 0.00 85 580.2
20210417004401 26 144 0.0 11.0 0.00 0.00 0.00 85 580.2
20210417003901 27 144 0.0 11.0 0.00 0.00 0.00 83 579.9
20210417003422 27 144 0.0 11.0 0.00 0.00 0.00 84 579.7
20210417002926 27 144 0.0 11.0 0.00 0.00 0.00 83 579.9
20210417002748 27 144 0.0 11.0 0.00 0.00 0.00 82 579.7
20210417001935 28 144 0.0 11.0 0.00 0.00 0.00 81 579.4
20210417001359 28 144 0.0 11.0 0.00 0.00 0.00 81 579.6
20210417000909 29 144 0.0 11.0 0.00 0.00 0.00 81 580.2
20210417000437 29 144 0.0 11.0 0.00 0.00 0.00 80 580.2
20210417000043 30 144 0.0 11.0 0.00 0.00 0.00 78 580.8
20210416235847 30 144 0.0 11.0 0.00 0.00 0.00 78 581.0
20210416234953 30 144 0.0 11.0 0.00 0.00 0.00 79 580.3
20210416234356 30 144 0.0 11.0 0.00 0.00 0.00 79 580.1
20210416233859 30 144 0.0 11.0 0.00 0.00 0.00 78 580.5
20210416233356 30 144 0.0 11.0 0.00 0.00 0.00 78 581.1
20210416232935 30 144 0.0 11.0 0.00 0.00 0.00 77 581.5
20210416232754 31 144 0.0 11.0 0.00 0.00 0.00 77 581.4
20210416231945 31 144 0.0 11.0 0.00 0.00 0.00 76 581.8
20210416231445 31 144 0.0 11.0 0.00 0.00 0.00 75 581.7
20210416230854 32 144 0.0 11.0 0.00 0.00 0.00 75 581.8
20210416230355 32 144 0.0 11.0 0.00 0.00 0.00 74 581.7
20210416230114 32 144 1.0 11.0 0.00 0.00 0.00 75 581.2
20210416225833 32 144 0.0 11.0 0.00 0.00 0.00 75 581.7
20210416225045 32 144 0.0 11.0 0.00 0.00 0.00 74 581.8
20210416224354 33 144 0.0 11.0 0.00 0.00 0.00 73 581.9
20210416223853 33 144 0.0 11.0 0.00 0.00 0.00 73 581.6
20210416223352 33 144 0.0 11.0 0.00 0.00 0.00 73 581.2
20210416222954 33 144 1.0 11.0 0.00 0.00 0.00 73 580.9
20210416222857 33 144 0.0 11.0 0.00 0.00 0.00 73 580.8
20210416222049 33 144 0.0 11.0 0.00 0.00 0.00 73 580.7
20210416221353 33 144 0.0 11.0 0.00 0.00 0.00 73 580.3
20210416220852 33 144 0.0 11.0 0.00 0.00 0.00 73 579.7
20210416220353 33 144 0.0 11.0 0.00 0.00 0.00 72 577.9
20210416220029 34 144 0.0 11.0 0.00 0.00 0.00 72 574.6
20210416215835 34 144 1.0 11.0 0.00 0.00 0.00 72 567.9
20210416215028 34 144 0.0 11.0 0.00 0.00 0.00 71 553.8
20210416214349 34 143 1.0 11.0 0.00 0.00 0.00 71 524.0
20210416213849 34 117 1.0 11.0 0.00 0.00 0.00 71 496.5
20210416213351 34 115 1.0 11.0 0.00 0.00 0.00 71 492.8
20210416212851 34 115 1.0 11.0 0.00 0.00 0.00 72 491.9
20210416212737 34 113 1.0 11.0 0.00 0.00 0.00 72 489.1
20210416212039 33 112 0.0 11.0 0.00 0.00 0.00 73 490.0
20210416211349 33 112 0.0 11.0 0.00 0.00 0.00 75 492.7
20210416210847 32 110 0.0 11.0 0.00 0.00 0.00 76 500.0
20210416210348 31 119 1.0 11.0 0.00 0.00 0.00 78 521.0
20210416205847 31 126 0.0 11.0 0.00 0.00 0.00 77 526.7
20210416205531 31 126 0.0 11.0 0.00 0.00 0.00 77 526.8
20210416204856 31 126 0.0 11.0 0.00 0.00 0.00 77 526.9
20210416204349 31 126 0.0 11.0 0.00 0.00 0.00 77 526.7
20210416203848 31 126 0.0 11.0 0.00 0.00 0.00 76 526.5
20210416203350 31 126 0.0 11.0 0.00 0.00 0.00 75 526.5
20210416202920 32 126 0.0 11.0 0.00 0.00 0.00 75 526.7
20210416202706 32 126 0.0 11.0 0.00 0.00 0.00 74 527.3
20210416201935 32 126 0.0 11.0 0.00 0.00 0.00 74 527.9
20210416201347 32 126 0.0 11.0 0.00 0.00 0.00 74 529.3
20210416200847 32 126 0.0 11.0 0.00 0.00 0.00 74 532.1
20210416200346 32 126 0.0 11.0 0.00 0.00 0.00 73 537.0
20210416200052 33 126 0.0 11.0 0.00 0.00 0.00 73 547.5
20210416195846 33 125 0.0 11.0 0.00 0.00 0.00 72 570.2
20210416195219 34 157 0.0 11.0 0.00 0.00 0.00 70 617.5
20210416194344 35 157 0.0 11.0 0.00 0.00 0.00 69 617.8
20210416193843 35 157 0.0 11.0 0.00 0.00 0.00 68 617.6
20210416193500 36 157 1.0 11.0 0.00 0.00 0.00 67 618.4
20210416193248 36 157 0.0 11.0 0.00 0.00 0.00 66 618.4
20210416193124 37 157 0.0 11.0 0.00 0.00 0.00 65 618.3
20210416192042 37 157 0.0 11.0 0.00 0.00 0.00 65 618.0
20210416191349 37 157 0.0 11.0 0.00 0.00 0.00 64 615.6
20210416190842 37 157 0.0 11.0 0.00 0.00 0.00 64 611.6
20210416190342 38 157 0.0 11.0 0.00 0.00 0.00 63 604.0
20210416190045 38 157 1.0 11.0 0.00 0.00 0.00 63 588.3
20210416185410 38 147 1.0 11.0 0.00 0.00 0.00 63 565.3
20210416184840 38 139 1.0 11.0 0.00 0.00 0.00 62 539.6
20210416184346 38 127 1.0 11.0 0.00 0.00 0.00 62 529.0
20210416183839 39 127 1.0 11.0 0.00 0.00 0.00 62 529.0
20210416183339 39 127 1.0 11.0 0.00 0.00 0.00 62 528.9
20210416182942 39 127 1.0 11.0 0.00 0.00 0.00 61 528.6
20210416182814 39 127 1.0 11.0 0.00 0.00 0.00 61 527.9
20210416182047 39 127 1.0 11.0 0.00 0.00 0.00 62 527.1
20210416181348 40 127 1.0 11.0 0.00 0.00 0.00 61 525.7
20210416180840 40 127 1.0 11.0 0.00 0.00 0.00 61 522.4
20210416180344 40 127 0.0 11.0 0.00 0.00 0.00 60 516.8
20210416175837 40 125 1.0 11.0 0.00 0.00 0.00 61 505.9
20210416175545 40 124 1.0 11.0 0.00 0.00 0.00 61 493.1
20210416174857 40 125 0.0 11.0 0.00 0.00 0.00 60 467.8
20210416174335 41 97 1.0 11.0 0.00 0.00 0.00 60 420.4
20210416173834 41 88 0.0 11.0 0.00 0.00 0.00 59 401.8
20210416173334 41 88 0.0 11.0 0.00 0.00 0.00 59 390.5
20210416172848 41 89 0.0 11.0 0.00 0.00 0.00 59 366.8
20210416172746 42 47 1.0 11.0 0.00 0.00 0.00 59 326.5
20210416171930 42 37 0.0 11.0 0.00 0.00 0.00 58 365.6
20210416171333 42 103 1.0 11.0 0.00 0.00 0.00 57 470.5
20210416170852 42 104 0.0 11.0 0.00 0.00 0.00 57 483.5
20210416170337 42 123 1.0 11.0 0.00 0.00 0.00 56 510.6
20210416170046 43 122 1.0 11.0 0.00 0.00 0.00 56 486.5
20210416165831 43 111 2.0 11.0 0.00 0.00 0.00 56 478.7
20210416164921 43 112 1.0 11.0 0.00 0.00 0.00 55 482.8
20210416164335 43 113 2.0 11.0 0.00 0.00 0.00 54 482.6
20210416163837 43 114 2.0 11.0 0.00 0.00 0.00 55 500.3
20210416163329 44 131 1.0 11.0 0.00 0.00 0.00 54 534.8
20210416162829 44 110 2.0 11.0 0.00 0.00 0.00 53 505.9
20210416162617 44 140 2.0 11.0 0.00 0.00 0.00 53 526.2
20210416161905 44 106 3.0 11.0 0.00 0.00 0.00 53 520.4
20210416161328 44 128 2.0 11.0 0.00 0.00 0.00 53 538.0
20210416160837 44 152 1.0 11.0 0.00 0.00 0.00 54 554.3
20210416160344 44 132 3.0 11.0 0.00 0.00 0.00 54 504.6
20210416155950 44 103 1.0 11.0 0.00 0.00 0.00 55 537.5
20210416155757 44 88 1.0 11.0 0.00 0.00 0.00 56 611.8
20210416154855 44 118 0.0 11.0 0.00 0.00 0.00 55 629.2
20210416154327 44 296 0.0 11.0 0.00 0.00 0.00 56 718.3
20210416153825 44 100 1.0 11.0 0.00 0.00 0.00 54 494.6
20210416153325 45 123 1.0 11.0 0.00 0.00 0.00 53 513.3
20210416152825 46 143 0.0 11.0 0.00 0.00 0.00 54 602.7
20210416152612 46 193 1.0 11.0 0.00 0.00 0.00 52 621.0
20210416151858 46 165 2.0 11.0 0.00 0.00 0.00 52 602.2
20210416151323 46 118 1.0 11.0 0.00 0.00 0.00 52 514.5
20210416150846 46 65 1.0 11.0 0.00 0.00 0.00 52 488.7
20210416150400 46 177 2.0 11.0 0.00 0.00 0.00 52 591.0
20210416150204 47 115 2.0 11.0 0.00 0.00 0.00 52 584.2
20210416145844 46 151 2.0 11.0 0.00 0.00 0.00 52 600.2
20210416145044 46 115 2.0 11.0 0.00 0.00 0.00 52 590.2
20210416144320 46 144 3.0 11.0 0.00 0.00 0.00 52 698.2
20210416143828 47 196 3.0 11.0 0.00 0.00 0.00 51 759.1
20210416143322 47 190 4.0 11.0 0.00 0.00 0.00 50 785.6
20210416142925 47 238 1.0 11.0 0.00 0.00 0.00 50 770.6
20210416142818 46 201 2.0 11.0 0.00 0.00 0.00 52 663.3
20210416141902 46 142 3.0 11.0 0.00 0.00 0.00 53 616.8
20210416141319 45 152 1.0 11.0 0.00 0.00 0.00 55 677.6
20210416140831 45 183 4.0 11.0 0.00 0.00 0.00 53 756.2
20210416140318 45 223 1.0 11.0 0.00 0.00 0.00 54 820.8
20210416140105 45 264 2.0 11.0 0.00 0.00 0.00 54 714.2
20210416135852 46 122 2.0 11.0 0.00 0.00 0.00 53 591.2
20210416134948 45 138 3.0 11.0 0.00 0.00 0.00 53 643.5
20210416134314 46 179 2.0 11.0 0.00 0.00 0.00 53 737.1
20210416133823 45 260 2.0 11.0 0.00 0.00 0.00 53 697.0
20210416133314 46 156 4.0 11.0 0.00 0.00 0.00 52 646.0
20210416132900 46 147 2.0 11.0 0.00 0.00 0.00 52 654.3
20210416132741 46 207 2.0 11.0 0.00 0.00 0.00 52 656.4
20210416131913 46 162 2.0 11.0 0.00 0.00 0.00 52 645.9
20210416131312 46 144 3.0 11.0 0.00 0.00 0.00 51 656.8
20210416130821 46 218 4.0 11.0 0.00 0.00 0.00 53 706.3
20210416130311 45 143 1.0 11.0 0.00 0.00 0.00 55 653.0
20210416125815 45 217 5.0 11.0 0.00 0.00 0.00 53 702.1
20210416124945 46 198 4.0 11.0 0.00 0.00 0.00 53 718.5
20210416124310 45 216 2.0 11.0 0.00 0.00 0.00 54 738.2
20210416123816 45 215 3.0 11.0 0.00 0.00 0.00 55 741.1
20210416123312 45 235 1.0 11.0 0.00 0.00 0.00 55 740.0
20210416122818 44 205 2.0 11.0 0.00 0.00 0.00 55 664.5
20210416122749 45 197 3.0 11.0 0.00 0.00 0.00 53 673.6
20210416121840 45 91 4.0 11.0 0.00 0.00 0.00 52 506.2
20210416121310 46 132 3.0 11.0 0.00 0.00 0.00 52 523.3
20210416120815 45 134 3.0 11.0 0.00 0.00 0.00 54 492.4
20210416120309 45 130 4.0 11.0 0.00 0.00 0.00 53 484.4
20210416115835 45 128 1.0 11.0 0.00 0.00 0.00 55 462.7
20210416114944 45 130 3.0 11.0 0.00 0.00 0.00 56 419.9
20210416114310 43 77 2.0 11.0 0.00 0.00 0.00 58 349.8
20210416113822 43 58 5.0 11.0 0.00 0.00 0.00 56 374.8
20210416113307 43 59 4.0 11.0 0.00 0.00 0.00 57 408.5
20210416112836 45 51 2.0 11.0 0.00 0.00 0.00 54 482.5
20210416112626 45 150 4.0 11.0 0.00 0.00 0.00 55 545.1
20210416111915 45 85 1.0 11.0 0.00 0.00 0.00 55 455.7
20210416111312 45 85 1.0 11.0 0.00 0.00 0.00 56 502.6
20210416110813 44 66 3.0 11.0 0.00 0.00 0.00 56 483.5
20210416110313 44 139 2.0 11.0 0.00 0.00 0.00 56 536.7
20210416105943 44 124 2.0 11.0 0.00 0.00 0.00 58 487.1
20210416105742 42 101 3.0 11.0 0.00 0.00 0.00 59 470.9
20210416104830 42 156 2.0 11.0 0.00 0.00 0.00 61 538.2
20210416104302 42 91 4.0 11.0 0.00 0.00 0.00 59 509.7
20210416103804 42 38 4.0 12.0 0.00 0.00 0.00 60 557.7
20210416103317 42 191 4.0 12.0 0.00 0.00 0.00 60 585.9
20210416103037 41 145 3.0 12.0 0.00 0.00 0.00 61 445.3
20210416102831 41 67 4.0 14.0 0.00 0.00 0.00 62 386.1
20210416101915 41 66 6.0 14.0 0.00 0.00 0.00 62 374.9
20210416101307 41 92 3.0 11.0 0.00 0.00 0.00 62 405.0
20210416100809 41 42 4.0 11.0 0.00 0.00 0.00 61 405.6
20210416100303 41 342 2.0 11.0 0.00 0.00 0.00 62 508.8
20210416095855 41 77 3.0 11.0 0.00 0.00 0.00 61 423.8
20210416095717 41 119 1.0 12.0 0.00 0.00 0.00 64 453.2
20210416094828 40 36 9.0 12.0 0.00 0.00 0.00 61 429.6
20210416094302 41 53 2.0 12.0 0.00 0.00 0.00 62 420.0
20210416093816 40 37 3.0 12.0 0.00 0.00 0.00 62 475.9
20210416093300 40 143 4.0 12.0 0.00 0.00 0.00 62 547.6
20210416092915 40 141 2.0 12.0 0.00 0.00 0.00 63 517.9
20210416092354 39 160 2.0 12.0 0.00 0.00 0.00 65 494.6
20210416091800 38 55 4.0 12.0 0.00 0.00 0.00 68 397.1
20210416091300 37 17 4.0 12.0 0.00 0.00 0.00 66 485.4
20210416090800 37 176 2.0 12.0 0.00 0.00 0.00 67 616.3
20210416090300 37 30 5.0 12.0 0.00 0.00 0.00 69 652.3
20210416085850 37 355 3.0 11.0 0.00 0.00 0.00 73 757.8
20210416085653 36 10 4.0 11.0 0.00 0.00 0.00 74 619.8
20210416084836 36 63 2.0 11.0 0.00 0.00 0.00 74 521.9
20210416084301 37 51 1.0 11.0 0.00 0.00 0.00 74 572.9
20210416083800 36 95 3.0 11.0 0.00 0.00 0.00 76 521.9
20210416083258 36 356 6.0 11.0 0.00 0.00 0.00 75 640.9
20210416082913 36 2 3.0 11.0 0.00 0.00 0.00 77 646.7
20210416082651 35 356 2.0 11.0 0.00 0.00 0.00 77 680.6
20210416081824 35 355 3.0 11.0 0.00 0.00 0.00 78 536.7
20210416081258 34 20 3.0 11.0 0.00 0.00 0.00 81 307.9
20210416080755 35 28 7.0 11.0 0.00 0.00 0.00 80 297.5
20210416080305 36 39 2.0 11.0 0.00 0.00 0.00 72 297.8
20210416075756 36 35 2.0 11.0 0.00 0.00 0.00 71 291.9
20210416075457 36 37 3.0 11.0 0.00 0.00 0.00 73 341.3